INTELSAT 22 (IS-22)

Last updated on Thu Sep 24 2026 00:03:17 GMT+0000 (Coordinated Universal Time)

1 38098U 12011A 26266.57029366 .00000000 00000+0 00000+0 0 9991 2 38098 0.0260 139.5422 0001755 61.1502 79.1266 1.00269181 8172
UTC large
Height (km)
Speed (km/s)
/
Latitude / Longitude
Inclination (degrees)
Orbital Period (minutes)
Azimuth
Elevation
Range (km)
Doppler Factor

Next 0 passes for location: London (51.5072 / 0.1276)

No passes found over London.
INTELSAT 22 (IS-22)